Regional Weather Roundup
Issued by NWS Albany, NY

Home | Current Version | Previous Version | Text Only | Print | Product List | Glossary On
Versions: 1 2 3 4 5 6 7 8 9 10 11 12 13 14 15 16 17 18 19 20 21 22 23 24 25 26 27 28 29 30 31 32 33 34 35 36 37 38 39 40 41 42 43 44 45 46 47 48 49 50
486
ASUS41 KALY 300810
RWRALY

NEW YORK STATE HOURLY WEATHER ROUNDUP
NATIONAL WEATHER SERVICE ALBANY NY
400 AM EDT SAT JUL 30 2016

NOTE: "FAIR" INDICATES FEW OR NO CLOUDS BELOW 12,000 FEET WITH NO
SIGNIFICANT WEATHER AND/OR NO OBSTRUCTIONS TO VISIBILITY.

NYZ032-033-038>043-046>054-057>066-NYZ062>081-082-084-300900-
EAST


CITY           SKY/WX    TMP DP  RH WIND       PRES   REMARKS
ALBANY         CLOUDY    65  58  78 N6        30.00R
GLENS FALLS    CLEAR     62  58  86 CALM      30.00R
POUGHKEEPSIE   CLEAR     70  62  76 CALM      29.96R
NEWBURGH       CLEAR     70  63  78 CALM      29.99R
MONTGOMERY     FOG       67  67 100 CALM      29.97R VSB 3/4
WHITE PLAINS   CLOUDY    70  67  90 CALM      29.95R
ISLIP          PTCLDY    72  71  97 CALM      29.94R
NEW YORK CITY  PTCLDY    78  70  76 SW5       29.93S
CENTRAL PARK   CLEAR     75  69  81 W3        29.97R
$$

NYZ005>009-017-018-044>046-055-056-300900-
CENTRAL


CITY           SKY/WX    TMP DP  RH WIND       PRES   REMARKS
FULTON         CLEAR     63  56  78 CALM      30.01S
SYRACUSE       PTCLDY    61  58  90 CALM      30.00S
ROME           PTCLDY    59  57  93 E3        30.02S
ELMIRA         LGT RAIN  65  60  84 CALM      30.00S
BINGHAMTON     CLOUDY    64  55  72 E3        30.01F
MONTICELLO     CLEAR     63  63 100 CALM      30.02S
$$

NYZ026>034-041>043-087-300900-
NORTH


CITY           SKY/WX    TMP DP  RH WIND       PRES   REMARKS
WATERTOWN      CLEAR     54  51  90 NE7       30.03S
FORT DRUM      NOT AVBL
MASSENA        PTCLDY    57  54  89 CALM      30.05R
SARANAC LAKE   CLOUDY    45  43  93 CALM      30.05S
PLATTSBURGH    CLEAR     61  56  83 NW6       30.02R
$$

NYZ001>004-010>016-019>021-085-300900-
WEST


CITY           SKY/WX    TMP DP  RH WIND       PRES   REMARKS
BUFFALO        MOCLDY    68  61  78 E10       30.00R
DUNKIRK        MOCLDY    68  61  78 NE7       29.97F
JAMESTOWN      CLOUDY    66  57  72 E6        30.01S
WELLSVILLE     CLOUDY    63  61  93 E6        30.05F
ROCHESTER      CLOUDY    70  59  68 E10       30.01F
PENN YAN       PTCLDY    64  58  80 CALM      30.02S
$$

             KEY
       WCI = WIND CHILL INDEX
       VSB = VISIBILITY
       HX  = HEAT INDEX
$$




USA.gov is the U.S. government's official web portal to all federal, state and local government web resources and services.